User: anonymous   Login
Location: Corcelles
(46.1547°N, 4.7234°E)
Time: 18:35:06
(UTC+00:00)
Language:

Cosmos 1818 - Orbit

View from above orbital plane
View from above orbital plane
View from above satellite
View from above satellite

Ground track
Ground track

The orbit data is extracted from the following two-line orbital elements,

1 17369U 87011A   20262.96408334 -.00000097  00000-0  10723-5 0  9997
2 17369  65.0131   1.6028 0014520 283.9624  75.9846 14.31458350808927
Epoch (UTC): 18 September 2020 23:08:16
Eccentricity: 0.0014520
inclination: 65.0131°
perigee height: 776 km
apogee height: 797 km
right ascension of ascending node: 1.6028°
argument of perigee: 283.9624°
revolutions per day: 14.31458350
mean anomaly at epoch: 75.9846°
orbit number at epoch: 80892

The dashed part of the orbit path shows where the satellite is in the earth's shadow,  

DLR